Location: Gombori
(14.9797°N, 2.9419°W)
Time: 08:52:17
(UTC+00:00)

CENTAUR R/B - Pass Details

Date: 29 July 2021
Orbit: 730 x 1458 km, 63.5° (Epoch: 18 September)

Event Time Altitude Azimuth Distance (km) Brightness Sun altitude
Rises 20:43:53 0° 323° (NW) 4,482 7.0 -27.5°
Reaches altitude 10° 20:46:58 10° 316° (NW) 3,547 6.3 -28.1°
Maximum altitude 20:55:09 42° 250° (WSW) 1,980 4.2 -29.8°
Enters shadow 21:00:24 22° 194° (SSW) 2,718 4.6 -30.9°
